Weather History for KAQO - February, 2012

Change the Weather History Date:

Monday, February 20, 2012

  Actual Average (KAUS) Record (KAUS)
Temperature  
Mean Temperature 58 °F 53 °F  
Max Temperature 73 °F 66 °F 94 °F (1986)
Min Temperature 44 °F 40 °F 29 °F (2009)
Degree Days  
Heating Degree Days 6 12  
Month to date heating degree days 280  
Since 1 July heating degree days 1522  
Cooling Degree Days 0 0  
Month to date cooling degree days 0  
Year to date cooling degree days 5  
Growing Degree Days 8 (Base 50)    
Moisture  
Dew Point 48 °F    
Average Humidity 73    
Maximum Humidity 100    
Minimum Humidity 41    
Precipitation  
Precipitation 0.00 in 0.09 in 3.53 in (2003)
Month to date precipitation 1.68  
Year to date precipitation 3.88  
Snow  
Snow 0.00 in - - ()
Month to date snowfall  
Since 1 July snowfall  
Snow Depth -    
Sea Level Pressure  
Sea Level Pressure 30.04 in    
Wind  
Wind Speed 5 mph (SSW)    
Max Wind Speed 18 mph    
Max Gust Speed 20 mph    
Visibility 10 miles    
Events      
T = Trace of Precipitation, MM = Missing Value Source: NWS Daily Summary

Daily Weather History Graph

Daily Weather History Graph

Search for Another Location

Airport or City:

Trip Planner

Search our weather history database for the weather conditions in past years. The results will help you decide how hot, cold, wet, or windy it might be!

Date:

Astronomy

Feb. 20, 2012 Rise Set
Actual Time 7:11 AM CST 6:26 PM CST
Civil Twilight 6:46 AM CST 6:50 PM CST
Nautical Twilight 6:18 AM CST 7:18 PM CST
Astronomical Twilight 5:50 AM CST 7:46 PM CST
Moon 6:06 AM CST (2/20) 5:32 PM CST (2/20)
Length of Visible Light 12h 04m
Length of Day
11h 15m
Waning Crescent, 1% of the Moon is Illuminated
Feb 20
Waning Crescent
Feb 21
New
Feb 29
First Quarter
Mar 8
Full
Mar 14
Last Quarter

Hourly Weather History & Observations

Time (CST) Temp. Windchill Dew Point Humidity Pressure Visibility Wind Dir Wind Speed Gust Speed Precip Events Conditions
12:15 AM 46.4 °F 42.9 °F 44.6 °F 93% 30.03 in 10.0 mi SE 6.9 mph - N/A   Clear
12:35 AM 46.4 °F - 44.6 °F 93% 30.03 in 10.0 mi Calm Calm - N/A   Clear
12:55 AM 46.4 °F - 44.6 °F 93% 30.03 in 10.0 mi Calm Calm - N/A   Clear
1:15 AM 46.4 °F - 44.6 °F 93% 30.03 in 10.0 mi Calm Calm - N/A   Clear
1:35 AM 46.4 °F 45.2 °F 44.6 °F 93% 30.02 in 10.0 mi SE 3.5 mph - N/A   Clear
1:55 AM 46.4 °F - 44.6 °F 93% 30.02 in 10.0 mi Calm Calm - N/A   Clear
2:15 AM 44.6 °F 41.4 °F 44.6 °F 100% 30.02 in 10.0 mi SE 5.8 mph - N/A   Clear
2:35 AM 46.4 °F - 44.6 °F 93% 30.01 in 10.0 mi Calm Calm - N/A   Clear
2:55 AM 44.6 °F 42.2 °F 44.6 °F 100% 30.02 in 8.0 mi SE 4.6 mph - N/A   Partly Cloudy
3:15 AM 46.4 °F 42.4 °F 44.6 °F 93% 30.01 in 10.0 mi SSE 8.1 mph - N/A   Mostly Cloudy
3:55 AM 46.4 °F 43.5 °F 44.6 °F 93% 30.01 in 10.0 mi SSE 5.8 mph - N/A   Mostly Cloudy
4:15 AM 48.2 °F - 44.6 °F 87% 30.00 in 10.0 mi SSE 9.2 mph - N/A   Mostly Cloudy
4:35 AM 48.2 °F - 44.6 °F 87% 30.01 in 10.0 mi SSE 8.1 mph - N/A   Overcast
4:55 AM 48.2 °F - 44.6 °F 87% 30.00 in 10.0 mi South 6.9 mph - N/A   Overcast
5:35 AM 50.0 °F - 46.4 °F 87% 30.01 in 10.0 mi South 8.1 mph - N/A   Overcast
5:55 AM 50.0 °F - 46.4 °F 87% 30.01 in 10.0 mi South 5.8 mph - N/A   Overcast
6:15 AM 50.0 °F - 46.4 °F 87% 30.02 in 10.0 mi South 6.9 mph - N/A   Overcast
6:35 AM 51.8 °F - 46.4 °F 82% 30.03 in 10.0 mi South 5.8 mph - N/A   Overcast
6:55 AM 51.8 °F - 46.4 °F 82% 30.03 in 10.0 mi Calm Calm - N/A   Overcast
7:15 AM 51.8 °F - 46.4 °F 82% 30.06 in 10.0 mi Calm Calm - N/A   Overcast
7:35 AM 51.8 °F - 46.4 °F 82% 30.07 in 10.0 mi Calm Calm - N/A   Overcast
7:55 AM 51.8 °F - 46.4 °F 82% 30.07 in 10.0 mi Calm Calm - N/A   Mostly Cloudy
8:15 AM 51.8 °F - 48.2 °F 88% 30.09 in 10.0 mi Calm Calm - N/A   Mostly Cloudy
8:35 AM 51.8 °F - 48.2 °F 88% 30.09 in 10.0 mi Calm Calm - N/A   Overcast
8:55 AM 51.8 °F - 48.2 °F 88% 30.10 in 10.0 mi Calm Calm - N/A   Overcast
9:15 AM 53.6 °F - 48.2 °F 82% 30.09 in 10.0 mi Calm Calm - N/A   Overcast
9:35 AM 55.4 °F - 50.0 °F 82% 30.10 in 10.0 mi Calm Calm - N/A   Overcast
9:55 AM 57.2 °F - 48.2 °F 72% 30.10 in 10.0 mi SSW 11.5 mph - N/A   Overcast
10:15 AM 59.0 °F - 48.2 °F 67% 30.09 in 10.0 mi SW 12.7 mph 17.3 mph N/A   Overcast
10:35 AM 60.8 °F - 48.2 °F 63% 30.09 in 10.0 mi SW 12.7 mph 19.6 mph N/A   Mostly Cloudy
10:55 AM 62.6 °F - 50.0 °F 63% 30.10 in 10.0 mi SSW 18.4 mph - N/A   Mostly Cloudy
11:15 AM 62.6 °F - 51.8 °F 68% 30.09 in 10.0 mi SW 15.0 mph - N/A   Scattered Clouds
11:35 AM 64.4 °F - 51.8 °F 64% 30.08 in 10.0 mi SSW 13.8 mph 18.4 mph N/A   Partly Cloudy
11:55 AM 64.4 °F - 51.8 °F 64% 30.07 in 10.0 mi SSW 15.0 mph 18.4 mph N/A   Clear
12:15 PM 64.4 °F - 51.8 °F 64% 30.07 in 10.0 mi SSW 12.7 mph - N/A   Partly Cloudy
12:35 PM 66.2 °F - 51.8 °F 60% 30.06 in 10.0 mi SSW 10.4 mph 16.1 mph N/A   Partly Cloudy
12:55 PM 66.2 °F - 51.8 °F 60% 30.05 in 10.0 mi SW 8.1 mph - N/A   Partly Cloudy
1:15 PM 66.2 °F - 51.8 °F 60% 30.03 in 10.0 mi SSW 8.1 mph - N/A   Clear
1:35 PM 68.0 °F - 51.8 °F 56% 30.02 in 10.0 mi SW 9.2 mph - N/A   Clear
1:55 PM 69.8 °F - 51.8 °F 53% 30.01 in 10.0 mi WSW 12.7 mph - N/A   Clear
2:15 PM 69.8 °F - 50.0 °F 49% 30.00 in 10.0 mi WSW 8.1 mph - N/A   Clear
2:35 PM 69.8 °F - 50.0 °F 49% 30.00 in 10.0 mi SW 9.2 mph - N/A   Clear
2:55 PM 69.8 °F - 48.2 °F 46% 29.99 in 10.0 mi WSW 8.1 mph - N/A   Clear
3:15 PM 71.6 °F - 48.2 °F 43% 29.99 in 10.0 mi WSW 10.4 mph - N/A   Clear
3:35 PM 71.6 °F - 48.2 °F 43% 29.99 in 10.0 mi WSW 8.1 mph - N/A   Clear
3:55 PM 71.6 °F - 46.4 °F 41% 29.99 in 10.0 mi WSW 6.9 mph - N/A   Clear
4:35 PM 73.4 °F - 48.2 °F 41% 29.98 in 10.0 mi WSW 6.9 mph - N/A   Clear
4:55 PM 71.6 °F - 48.2 °F 43% 29.99 in 10.0 mi South 8.1 mph - N/A   Clear
5:15 PM 69.8 °F - 53.6 °F 56% 30.00 in 10.0 mi SSW 8.1 mph - N/A   Clear
5:35 PM 69.8 °F - 51.8 °F 53% 30.00 in 10.0 mi SSW 11.5 mph - N/A   Clear
5:55 PM 68.0 °F - 53.6 °F 60% 30.01 in 10.0 mi SSW 10.4 mph - N/A   Clear
6:15 PM 66.2 °F - 51.8 °F 60% 30.02 in 10.0 mi Calm Calm - N/A   Clear
6:35 PM 64.4 °F - 51.8 °F 64% 30.03 in 10.0 mi SW 5.8 mph - N/A   Clear
6:55 PM 64.4 °F - 51.8 °F 64% 30.04 in 10.0 mi SW 4.6 mph - N/A   Clear
7:15 PM 62.6 °F - 51.8 °F 68% 30.05 in 10.0 mi Calm Calm - N/A   Clear
7:35 PM 60.8 °F - 51.8 °F 72% 30.06 in 10.0 mi SW 4.6 mph - N/A   Clear
7:55 PM 60.8 °F - 51.8 °F 72% 30.07 in 10.0 mi WSW 3.5 mph - N/A   Clear
8:15 PM 60.8 °F - 51.8 °F 72% 30.08 in 10.0 mi SW 6.9 mph - N/A   Clear
8:35 PM 60.8 °F - 51.8 °F 72% 30.08 in 10.0 mi SW 3.5 mph - N/A   Clear
8:55 PM 57.2 °F - 51.8 °F 82% 30.10 in 10.0 mi Calm Calm - N/A   Clear
9:15 PM 55.4 °F - 51.8 °F 88% 30.11 in 10.0 mi Calm Calm - N/A   Clear
9:35 PM 57.2 °F - 51.8 °F 82% 30.11 in 10.0 mi West 3.5 mph - N/A   Clear
9:55 PM 55.4 °F - 50.0 °F 82% 30.14 in 10.0 mi NNW 10.4 mph - N/A   Clear
10:15 PM 57.2 °F - 51.8 °F 82% 30.16 in 10.0 mi NW 6.9 mph - N/A   Clear
10:35 PM 55.4 °F - 51.8 °F 88% 30.16 in 10.0 mi Calm Calm - N/A   Clear
10:55 PM 55.4 °F - 50.0 °F 82% 30.16 in 10.0 mi Calm Calm - N/A   Clear
11:15 PM 53.6 °F - 48.2 °F 82% 30.17 in 10.0 mi Calm Calm - N/A   Clear
11:35 PM 53.6 °F - 46.4 °F 77% 30.17 in 10.0 mi North 4.6 mph - N/A   Clear
11:55 PM 53.6 °F - 44.6 °F 72% 30.17 in 10.0 mi Calm Calm - N/A   Clear